TimePDT,TemperatureF,Dew PointF,Humidity,Sea Level PressureIn,VisibilityMPH,Wind Direction,Wind SpeedMPH,Gust SpeedMPH,PrecipitationIn,Events,Conditions,WindDirDegrees,DateUTC
12:53 AM,66.0,55.9,70,29.80,6.0,SSE,3.5,-,N/A,,Clear,150,2013-06-30 07:53:00
1:53 AM,64.0,55.0,73,29.79,6.0,South,3.5,-,N/A,,Clear,170,2013-06-30 08:53:00
2:53 AM,62.1,55.0,78,29.79,6.0,South,4.6,-,N/A,,Clear,170,2013-06-30 09:53:00
3:53 AM,61.0,54.0,78,29.79,6.0,Calm,Calm,-,N/A,,Clear,0,2013-06-30 10:53:00
4:53 AM,59.0,53.1,81,29.78,5.0,Calm,Calm,-,N/A,,Clear,0,2013-06-30 11:53:00
5:53 AM,57.9,53.1,84,29.80,4.0,Calm,Calm,-,N/A,,Clear,0,2013-06-30 12:53:00
6:53 AM,59.0,54.0,83,29.80,4.0,Calm,Calm,-,N/A,,Clear,0,2013-06-30 13:53:00
7:53 AM,64.0,55.9,75,29.81,10.0,South,4.6,-,N/A,,Clear,180,2013-06-30 14:53:00
8:53 AM,70.0,57.0,63,29.81,5.0,Calm,Calm,-,N/A,,Clear,0,2013-06-30 15:53:00
9:53 AM,77.0,59.0,54,29.80,6.0,Calm,Calm,-,N/A,,Haze,0,2013-06-30 16:53:00
10:53 AM,84.0,57.0,40,29.79,6.0,Variable,4.6,-,0.00,,Haze,0,2013-06-30 17:53:00
11:53 AM,88.0,57.0,35,29.79,6.0,South,4.6,-,N/A,,Haze,190,2013-06-30 18:53:00
12:53 PM,91.9,61.0,35,29.78,5.0,South,8.1,-,N/A,,Haze,190,2013-06-30 19:53:00
1:53 PM,93.9,59.0,31,29.76,6.0,SSE,9.2,-,N/A,,Haze,160,2013-06-30 20:53:00
2:53 PM,93.0,59.0,32,29.75,10.0,SSE,10.4,-,N/A,,Haze,160,2013-06-30 21:53:00
3:53 PM,93.0,63.0,37,29.73,10.0,SSE,10.4,-,N/A,,Haze,150,2013-06-30 22:53:00
4:53 PM,91.0,62.1,38,29.71,10.0,SSE,10.4,-,N/A,,Clear,160,2013-06-30 23:53:00
5:53 PM,87.1,60.1,40,29.70,5.0,SSE,11.5,-,N/A,,Clear,160,2013-07-01 00:53:00
6:53 PM,84.0,59.0,43,29.70,10.0,SSE,8.1,-,N/A,,Clear,160,2013-07-01 01:53:00
7:53 PM,77.0,57.9,52,29.71,4.0,South,6.9,-,N/A,,Clear,170,2013-07-01 02:53:00
8:53 PM,72.0,57.9,61,29.72,4.0,South,5.8,-,N/A,,Clear,180,2013-07-01 03:53:00
9:53 PM,66.9,55.9,68,29.73,5.0,SSE,4.6,-,N/A,,Clear,160,2013-07-01 04:53:00
10:53 PM,64.0,55.9,75,29.75,5.0,South,4.6,-,N/A,,Clear,170,2013-07-01 05:53:00
11:53 PM,62.1,55.0,78,29.76,5.0,South,3.5,-,N/A,,Clear,180,2013-07-01 06:53:00